一网星座-0566星 (ONEWEB-0566)

导读 | 星芒AI

ONEWE-0566 是 OneWeb 卫星通信星座计划中的一颗低轨通信卫星,旨在为全球提供高速互联网服务。该卫星由阿丽亚娜集团制造,采用标准化设计以提高部署效率。它运行在约 1200 公里的近地轨道,与其他 OneWeb 卫星共同构建全球覆盖网络,重点服务于航空、海运及偏远地区用户。该星座计划由数百颗卫星组成,致力于弥合数字鸿沟,推动全球通信基础设施发展。

基本信息
目录编号:
56061
目录名称:
ONEWEB-0566
国际标识:
2023-043R
轨道中心:
EARTH
卫星名称:
一网星座-0566星
卫星全名:
一网星座-0566星 (ONEWEB-0566)
卫星状态:
在轨 (已飞行996 天)
发射日期:
2023-03-26 UTC
国别 :
英国 (GB)
星等 :
--
轨道信息
数据来源 国际轨道数据 AOE轨道数据
星历时间 2025-12-15T15:58:16+0800
18小时前
查看轨道信息
2025-12-15T13:00:00+0800
21小时前
查看轨道信息
半长轴 7555.892km 7555.892km
偏心率 0.0001903 0.0001744
轨道倾角 87.922° 87.923°
近地点辐角 66.478° 57.375°
升交点赤经 280.647° 280.672°
平近点角 293.655° 73.975°
近地点 1176.319km 1176.439km
远地点 1179.195km 1179.075km
周期 108.940分钟 108.940分钟
每日圈数 13.218256 13.218257
详细信息
平衡模式:
三轴稳定
覆盖范围:
全球
运营商:
一网卫星公司
运营商所在国:
英国
制造商(研发单位):
一网卫星公司
制造商所在国:
英国
使用方式:
暂无
卫星简介
OneWeb卫星网络由648颗重约125公斤的微型卫星组成,运行在1200公里的轨道上。 每颗卫星都能够提供至少每秒8千兆位的吞吐量,以使用其高吞吐量的Ku频段有效载荷为家庭和移动平台提供互联网接入。该卫星仍在工作。
2D轨道图
3D轨道图
轨道高度分析图
轨道倾角分析图
轨道综合分析图
查看轨道综合分析图